Regional Weather Roundup
Issued by NWS San Diego, CA

Home | Current Version | Previous Version | Text Only | Print | Product List | Glossary On
Versions: 1 2 3 4 5 6 7 8 9 10 11 12 13 14 15 16 17 18 19 20 21 22 23 24 25 26 27 28 29 30 31 32 33 34 35 36 37 38 39 40 41 42 43 44 45 46 47 48 49 50
000
ASUS46 KSGX 261811
RWRSGX

SAN DIEGO HOURLY WEATHER ROUNDUP
NATIONAL WEATHER SERVICE SAN DIEGO CA
1100 AM PDT MON JUN 26 2017

NOTE: "FAIR" INDICATES FEW OR NO CLOUDS BELOW 12,000 FEET WITH NO
SIGNIFICANT WEATHER AND/OR OBSTRUCTIONS TO VISIBILITY.

CAZ042-043-060-061-PZZ750-775-261900-

GREATER SAN DIEGO AREA

CITY           SKY/WX    TMP DP  RH WIND       PRES   REMARKS
SAN DIEGO AP   PTSUNNY   67  63  87 S8        29.97R
NATIONAL CITY    N/A     70  65  83 S10       29.97R
CHULA VISTA      N/A     73  66  79 W6        29.88R
IMPERIAL BEACH MOSUNNY   70  61  73 SW14      29.97R
BROWN FIELD    SUNNY     77  62  59 NW6       29.96R
MIRAMAR MCAS   MOSUNNY   83  61  47 VRB7      29.95R
MONTGOMERY FLD SUNNY     79  62  56 SW8       29.95R
GILLESPIE FLD  SUNNY     90  59  35 VRB7      29.93S

$$

NORTH SAN DIEGO COUNTY

CITY           SKY/WX    TMP DP  RH WIND       PRES   REMARKS
CAMP PENDLETON SUNNY     81  62  52 S10       29.93R
OCEANSIDE AP   SUNNY     77  63  61 SW10      29.93R
OCEANSIDE HBR    N/A     68  64  86 CALM      29.97R
VISTA            N/A     85  66  52 CALM      29.91R
CARLSBAD       SUNNY     75  62  64 W9        29.94R
DEL MAR          N/A     68  65  89 SW5       29.97R
LA JOLLA SCRIP   N/A     67  65  93 SW3       29.95R
FALLBROOK        N/A     92  60  33 S2        29.94R
ESCONDIDO        N/A     97  63  32 SW6       29.93R HX  98
SAN MARCOS       N/A     87  67  50 NW7       29.94R
POWAY            N/A     95  63  33 W3        29.93S HX  96

$$

EAST SAN DIEGO COUNTY

CITY           SKY/WX    TMP DP  RH WIND       PRES   REMARKS
RAMONA         SUNNY    100  38  11 NW9       29.98R HX  95
LA MESA          N/A     80  63  56 CALM      29.87R
JAMUL            N/A     90  67  46 CALM      29.92R
DESCANSO N       N/A     93  42  17 W5        29.83R
CAMPO            N/A     98  33  10 W9G16     30.02R

$$

ORANGE COUNTY AND THE LOS ANGELES BASIN

CITY           SKY/WX    TMP DP  RH WIND       PRES   REMARKS
JOHN WAYNE AP  MOSUNNY   77  62  59 SW13      29.92R
LAGUNA BEACH     N/A     73  66  77 S3        29.89R
LAKE FOREST FR   N/A     94  50  22 N2        29.80R
HUNTINGTON BCH   N/A     74  66  75 S3        29.94R
LOS ALAMITOS   SUNNY     83  64  53 S8        29.91S
FULLERTON      SUNNY     89  62  40 CALM      29.90S
LONG BEACH     SUNNY     84  61  45 S6        29.91S
L.A. AP        SUNNY     78  62  57 W9        29.92R
L.A. DOWNTOWN  SUNNY     92  61  35 CALM      29.90S

$$

THE INLAND EMPIRE

CITY           SKY/WX    TMP DP  RH WIND       PRES   REMARKS
CORONA         SUNNY     95  62  33 W6        29.91F HX  96
CHINO          SUNNY    100  52  19 VRB6      29.92F HX  97
ONTARIO        SUNNY     97  50  20 VRB6      29.93S
SAN BERNARDINO SUNNY    100  39  12 SW5       29.95S HX  95
RIVERSIDE AP   SUNNY     98  50  19 VRB3      29.93S HX  95
MORENO VALLEY    N/A    100  25   7 W5        28.09S
MARCH ARB      SUNNY    101  23   6 W10G17    29.97S
HORSETHIEF CYN   N/A    101  26   7 E3        29.89S
PERRIS           N/A     97  38  13 S2        29.95S
HEMET EAST       N/A     97  32  10 SE2       29.95S
FRENCH VALLEY  FAIR      99  45  15 S8        29.97S
TEMECULA         N/A     97  44  16 SW5       29.98S

$$

SAN BERNARDINO AND RIVERSIDE COUNTY MOUNTAINS

CITY           SKY/WX    TMP DP  RH WIND       PRES   REMARKS
BIG BEAR AP    SUNNY     77  28  16 SW16G30   30.35R
ANGELUS OAKS     N/A     81  40  23 CALM      29.81R
PINE COVE        N/A     78  31  18 W6        29.89R

$$

SOUTHERN DESERT INCLUDING THE COACHELLA VALLEY

CITY           SKY/WX    TMP DP  RH WIND       PRES   REMARKS
PALM SPRINGS   SUNNY     97  64  33 E7        29.91S HX  99
THOUSAND PALMS   N/A     96  66  37 SE8       29.86S HX  99
PALM DESERT      N/A     98  69  38 CALM      31.99S HX 104
THERMAL        SUNNY     96  68  39 CALM      29.85S HX 101
BLYTHE         SUNNY    105  49  15 S13       29.86F HX 102
IMPERIAL AP    SUNNY     98  70  40 CALM      29.83F HX 105
EL CENTRO NAS  MOSUNNY  100  64  30 VRB3      29.85F HX 102
YUMA AZ        MOSUNNY   99  64  31 S7        29.86F HX 101
MEXICALI       MOSUNNY   97  66  36 SE7       29.86S HX 100

$$

UPPER DESERT

CITY           SKY/WX    TMP DP  RH WIND       PRES   REMARKS
VICTORVILLE AP MOSUNNY   99  25   7 W22G31    30.04S
HESPERIA         N/A     98  33  10 W7        29.93F
PALMDALE       SUNNY     98  21   6 SW24      30.02S
LANCASTER      SUNNY    100  28   8 SW16G22   30.00F
EDWARDS AFB    SUNNY     99  18   5 W24G31    29.96F
DAGGETT        SUNNY    102  24   6 W32G44    29.94S HX  95
29 PALMS N     SUNNY    102  19   5 CALM      30.03S

$$

REGIONAL REPORTS

CITY           SKY/WX    TMP DP  RH WIND       PRES   REMARKS
SANTA BARBARA  SUNNY     72  61  68 S10       29.92S
SANDBERG       SUNNY     92  15   6 W25G41    30.19S
LAS VEGAS NV   SUNNY    101   7   3 S14G23    29.89F
PHOENIX AZ     SUNNY    100  57  23 NW6       29.91F HX  99
TIJUANA        MOSUNNY   81  61  50 NW8       29.97R

$$

OFFSHORE ISLANDS

CITY           SKY/WX    TMP DP  RH WIND       PRES   REMARKS
CATALINA ARPT  SUNNY     93  30  10 NW8       30.02R
SAN CLEMENTE I SUNNY     71  58  63 SW7       29.97R
SAN NICOLAS IS SUNNY     73  54  51 W24       29.96R

$$

MARINE AND OFFSHORE BUOY REPORTS

STATION/POSITION SKY/WX   TEMP    WIND        PRES    VSBY  SWELL
                          AIR SEA DIR/SP/G                  HT/PER/DIR
                          (F)     (DEG/KT/KT) (MB)    (MI)  (FT/S/D)
TANNER BANKS               63 63  320/ 16/ 17 1014.5R         3/210/14
S CLEMENTE BASIN              64  280/  6/  8 1014.0          5/210/15
SAN NICOLAS IS.               59                N/A           2/200/15
SO. S. ROSA ISLA           58 57  310/ 19/ 23 1014.6R         3/210/15
W. S. BARBARA CH           58 57  310/ 23/ 29 1014.4R         2/210/15
M. S. BARBARA CH           62 61  240/ 12/ 16 1014.0R         2/230/ 7
S. MONICA BASIN            64 65  340/  8/ 10 1013.5R         3/200/15
S PEDRO CHANNEL               65                N/A           2/170/14
CMP PENDLETON NS              65                N/A           2/220/13
OCEANSIDE OFFSHR              67                N/A           2/200/15
TORREY PINES OTR              67                N/A           2/210/13
SAN DIEGO BAY                 71              1014.8R
POINT LOMA SOUTH              64                N/A           2/210/13

$$





USA.gov is the U.S. government's official web portal to all federal, state and local government web resources and services.